| time (UTC) | temp C | wind direction | speed KPH | gust KPH | rain 1hr cm | rain 24hr cm | rain mn cm | humidity % | barometer mb |
| 20260505021550 | 17 | 160 | 3.2 | 20.9 | 0.00 | 0.00 | 0.00 | 38 | 1006.0 |
| 20260505020048 | 17 | 50 | 3.2 | 16.1 | 0.00 | 0.00 | 0.00 | 38 | 1006.0 |
| 20260505014603 | 18 | 19 | 3.2 | 19.3 | 0.00 | 0.00 | 0.00 | 37 | 1005.8 |
| 20260505013045 | 20 | 25 | 3.2 | 11.3 | 0.00 | 0.00 | 0.00 | 33 | 1005.8 |
| 20260505011543 | 21 | 0 | 0.0 | 3.2 | 0.00 | 0.00 | 0.00 | 28 | 1005.8 |
| 20260505010042 | 22 | 283 | 0.0 | 4.8 | 0.00 | 0.00 | 0.00 | 22 | 1005.8 |
| 20260505004552 | 22 | 0 | 0.0 | 1.6 | 0.00 | 0.00 | 0.00 | 21 | 1005.8 |
| 20260505003047 | 22 | 255 | 0.0 | 4.8 | 0.00 | 0.00 | 0.00 | 22 | 1005.9 |
| 20260505001554 | 23 | 0 | 0.0 | 1.6 | 0.00 | 0.00 | 0.00 | 21 | 1005.9 |
| 20260505000103 | 23 | 199 | 0.0 | 6.4 | 0.00 | 0.00 | 0.00 | 21 | 1005.9 |
| 20260504234600 | 23 | 334 | 0.0 | 4.8 | 0.00 | 0.00 | 0.00 | 22 | 1006.0 |
| 20260504233045 | 23 | 268 | 1.6 | 6.4 | 0.00 | 0.00 | 0.00 | 21 | 1006.0 |
| 20260504231546 | 25 | 311 | 1.6 | 4.8 | 0.00 | 0.00 | 0.00 | 22 | 1006.1 |
| 20260504230046 | 25 | 304 | 1.6 | 4.8 | 0.00 | 0.00 | 0.00 | 19 | 1006.2 |
| 20260504224555 | 25 | 293 | 0.0 | 4.8 | 0.00 | 0.00 | 0.00 | 20 | 1006.4 |
| 20260504223045 | 25 | 0 | 0.0 | 4.8 | 0.00 | 0.00 | 0.00 | 18 | 1006.5 |
| 20260504221548 | 24 | 194 | 0.0 | 3.2 | 0.00 | 0.00 | 0.00 | 20 | 1006.7 |
| 20260504220049 | 25 | 279 | 0.0 | 8.0 | 0.00 | 0.00 | 0.00 | 20 | 1006.9 |
| 20260504214544 | 25 | 307 | 0.0 | 4.8 | 0.00 | 0.00 | 0.00 | 21 | 1007.2 |
| 20260504213102 | 25 | 142 | 0.0 | 4.8 | 0.00 | 0.00 | 0.00 | 20 | 1007.3 |
| 20260504211552 | 25 | 285 | 0.0 | 4.8 | 0.00 | 0.00 | 0.00 | 20 | 1007.5 |
| 20260504210052 | 25 | 323 | 1.6 | 8.0 | 0.00 | 0.00 | 0.00 | 23 | 1007.6 |
| 20260504204549 | 25 | 335 | 1.6 | 6.4 | 0.00 | 0.00 | 0.00 | 25 | 1007.8 |
| 20260504203059 | 24 | 299 | 1.6 | 6.4 | 0.00 | 0.00 | 0.00 | 23 | 1008.1 |
| 20260504201553 | 24 | 192 | 1.6 | 8.0 | 0.00 | 0.00 | 0.00 | 26 | 1008.3 |
| 20260504200046 | 23 | 316 | 1.6 | 8.0 | 0.00 | 0.00 | 0.00 | 25 | 1008.5 |
| 20260504194601 | 23 | 290 | 1.6 | 4.8 | 0.00 | 0.00 | 0.00 | 27 | 1008.8 |
| 20260504193058 | 23 | 0 | 1.6 | 4.8 | 0.00 | 0.00 | 0.00 | 28 | 1008.9 |
| 20260504191549 | 23 | 282 | 0.0 | 4.8 | 0.00 | 0.00 | 0.00 | 30 | 1009.1 |
| 20260504190055 | 22 | 266 | 1.6 | 4.8 | 0.00 | 0.00 | 0.00 | 32 | 1009.3 |
| 20260504184543 | 22 | 360 | 0.0 | 4.8 | 0.00 | 0.00 | 0.00 | 33 | 1009.4 |
| 20260504183050 | 22 | 285 | 0.0 | 1.6 | 0.00 | 0.00 | 0.00 | 32 | 1009.6 |
| 20260504181551 | 21 | 0 | 0.0 | 1.6 | 0.00 | 0.00 | 0.00 | 35 | 1009.6 |
| 20260504180051 | 20 | 162 | 0.0 | 4.8 | 0.00 | 0.00 | 0.00 | 34 | 1009.9 |
| 20260504174600 | 20 | 302 | 0.0 | 1.6 | 0.00 | 0.00 | 0.00 | 32 | 1010.1 |
| 20260504173100 | 20 | 287 | 0.0 | 3.2 | 0.00 | 0.00 | 0.00 | 33 | 1010.1 |
| 20260504171552 | 20 | 0 | 0.0 | 3.2 | 0.00 | 0.00 | 0.00 | 32 | 1010.1 |
| 20260504110107 | 7 | 0 | 0.0 | 0.0 | 0.00 | 0.00 | 0.00 | 57 | 1010.1 |
| 20260504090113 | 8 | 0 | 0.0 | 0.0 | 0.00 | 0.00 | 0.00 | 48 | 1009.8 |
| 20260504081542 | 12 | 0 | 0.0 | 1.6 | 0.00 | 0.00 | 0.00 | 39 | 1009.7 |
| 20260504044559 | 16 | 159 | 0.0 | 8.0 | 0.00 | 0.00 | 0.00 | 30 | 1010.6 |
| 20260504043050 | 16 | 155 | 1.6 | 6.4 | 0.00 | 0.00 | 0.00 | 29 | 1010.6 |
| 20260504041550 | 16 | 140 | 0.0 | 3.2 | 0.00 | 0.00 | 0.00 | 28 | 1010.5 |
| 20260504040052 | 16 | 0 | 0.0 | 3.2 | 0.00 | 0.00 | 0.00 | 29 | 1010.5 |
| 20260504034552 | 16 | 129 | 0.0 | 3.2 | 0.00 | 0.00 | 0.00 | 29 | 1010.5 |
| 20260504033056 | 16 | 127 | 0.0 | 1.6 | 0.00 | 0.00 | 0.00 | 29 | 1010.5 |
| 20260504031550 | 17 | 137 | 0.0 | 4.8 | 0.00 | 0.00 | 0.00 | 28 | 1010.4 |
| 20260504030050 | 17 | 101 | 0.0 | 6.4 | 0.00 | 0.00 | 0.00 | 28 | 1010.3 |
| 20260504024547 | 18 | 140 | 1.6 | 6.4 | 0.00 | 0.00 | 0.00 | 27 | 1010.2 |
| 20260504023046 | 18 | 0 | 0.0 | 3.2 | 0.00 | 0.00 | 0.00 | 26 | 1010.2 |